Home > Weather > Tsingtao > Past weeks

Flag for China Weather for the Past 2 Weeks in Tsingtao, Shandong, China

Now
25 °F

Clear.


Feels Like: 25 °F
Forecast: 32 / 52 °F
Wind: 1 mph from Southeast

Location: Qingdao Airport

Current Time: Feb 8, 2016 at 7:03:41 AM

Latest Report: Feb 8, 2016 at 6:00 AM


Visibility: 4 mi

Pressure: 30.04 "Hg

Humidity: 54%

Dew point: 10 °F

Location of TsingtaoLocation

Historic Weather in Tsingtao — Graph

°F

Tsingtao Temperature Yesterday

Maximum temperature yesterday: 45 °F (at 1:00 PM)
Minimum temperature yesterday: 18 °F (at 5:00 AM)
Average temperature yesterday: 32 °F

High & Low Weather Summary for the Past Weeks

 TemperatureHumidityPressure
High48 °F (Feb 4, 3:00 PM)86% (Jan 28, 12:00 AM)30.69 "Hg (Jan 28, 12:00 AM)
Low3 °F (Jan 24, 5:00 AM)10% (Jan 26, 2:00 PM)30.07 "Hg (Feb 8, 4:00 AM)
Average28 °F46%30.42 "Hg
* Reported Jan 24 5:00 AM — Feb 8 5:00 AM, Tsingtao, Weather by CustomWeather, © 2016

Note: Actual official high and low records may vary slightly from our data, if they occured in-between our weather recording intervals... More about our weather records

Advertising

Tsingtao Weather History for the Previous 24 Hours

 ConditionsComfort  
Time TempWeatherWind HumidityBarometerVisibility
5:00 AM
Mon, Feb 8
30 °FClear.3 mph51%30.07 "Hg3 mi
4:00 AM25 °FClear.1 mph69%30.07 "Hg2 mi
3:00 AM25 °FClear.1 mph69%30.09 "Hg2 mi
2:00 AM25 °FClear.No wind63%30.09 "Hg2 mi
1:00 AM30 °FClear.3 mph55%30.09 "Hg3 mi
12:00 AM32 °FClear.6 mph47%30.12 "Hg4 mi
11:00 PM
Sun, Feb 7
34 °FClear.6 mph44%30.12 "Hg10 mi
10:00 PM36 °FClear.6 mph41%30.12 "Hg10 mi
9:00 PM34 °FClear.8 mph48%30.12 "Hg10 mi
8:00 PM34 °FClear.6 mph48%30.12 "Hg10 mi
7:00 PM32 °FClear.6 mph51%30.12 "Hg10 mi
6:00 PM34 °FClear.8 mph38%30.12 "Hg10 mi
5:00 PM41 °FSunny.8 mph28%30.12 "Hg10 mi
4:00 PM45 °FSunny.6 mph25%30.09 "Hg10 mi
3:00 PM45 °FPassing clouds.3 mph18%30.12 "HgN/A
2:00 PM45 °FPassing clouds.6 mph14%30.12 "HgN/A
1:00 PM45 °FPassing clouds.6 mph15%30.15 "HgN/A
12:00 PM43 °FPassing clouds.6 mph21%30.18 "HgN/A
11:00 AM41 °FPassing clouds.8 mph31%30.21 "HgN/A
10:00 AM41 °FPassing clouds.8 mph39%30.21 "HgN/A
9:00 AM37 °FSunny.8 mph45%30.24 "Hg10 mi
8:00 AM25 °FSunny.1 mph59%30.24 "Hg10 mi
7:00 AM18 °FSunny.1 mph62%30.24 "Hg10 mi
Weather by CustomWeather, © 2016

See weather overviewHow to use our weather pages